Location: Pisa
(43.7170°N, 10.3830°E)
Time: 23:12:55
(UTC+02:00)

ISS - Pass Details

Date: 15 May 2021
Orbit: 417 x 422 km, 51.6° (Epoch: 18 June)

Event Time Altitude Azimuth Distance (km) Brightness Sun altitude
Rises 21:59:41 0° 226° (SW) 2,350 0.1 -13.0°
Reaches altitude 10° 22:01:47 10° 221° (SW) 1,492 -1.0 -13.2°
Maximum altitude 22:05:04 55° 143° (SE) 508 -3.7 -13.7°
Drops below altitude 10° 22:08:23 10° 65° (ENE) 1,503 -1.1 -14.1°
Sets 22:10:30 0° 61° (ENE) 2,372 -0.1 -14.4°
